UAL1292 KLAX-KLAS

Flight info

Callsign UAL1292
Flight time N/A
Altitude 29000
Route ORCKA5 MISEN RNDRZ4
Aircraft B38M/M-SDE1FGHILORVWXY/HB1

Departure

Time 2026-05-06 04:31
Airport Los Angeles International Airport (KLAX)

Arrival

Time N/A
Airport Harry Reid International Airport (KLAS)
Time Latitude Longitude Altitude Speed Heading
2026-05-06 04:05 33.94230 -118.39905 99 ft 0 kts 263°
2026-05-06 04:19 33.94232 -118.39890 99 ft 4 kts 261°
2026-05-06 04:19 33.94239 -118.39861 97 ft 4 kts 231°
2026-05-06 04:20 33.94252 -118.39852 100 ft 0 kts 174°
2026-05-06 04:24 33.94251 -118.39852 97 ft 1 kts 172°
2026-05-06 04:24 33.94239 -118.39849 97 ft 3 kts 168°
2026-05-06 04:24 33.94212 -118.39843 97 ft 5 kts 171°
2026-05-06 04:24 33.94170 -118.39837 99 ft 7 kts 173°
2026-05-06 04:25 33.94116 -118.39829 99 ft 9 kts 173°
2026-05-06 04:25 33.94050 -118.39826 99 ft 10 kts 180°
2026-05-06 04:25 33.93978 -118.39817 99 ft 12 kts 170°
2026-05-06 04:25 33.93920 -118.39781 104 ft 7 kts 128°
2026-05-06 04:26 33.93909 -118.39700 105 ft 16 kts 82°
2026-05-06 04:26 33.93926 -118.39534 105 ft 22 kts 83°
2026-05-06 04:26 33.93946 -118.39339 104 ft 25 kts 83°
2026-05-06 04:26 33.93968 -118.39126 104 ft 26 kts 83°
2026-05-06 04:27 33.93988 -118.38930 104 ft 23 kts 83°
2026-05-06 04:27 33.94008 -118.38733 104 ft 24 kts 83°
2026-05-06 04:27 33.94029 -118.38527 106 ft 25 kts 83°
2026-05-06 04:27 33.94045 -118.38369 106 ft 14 kts 83°
2026-05-06 04:28 33.94058 -118.38244 106 ft 16 kts 83°
2026-05-06 04:28 33.94072 -118.38105 105 ft 15 kts 83°
2026-05-06 04:28 33.94073 -118.38027 106 ft 7 kts 109°
2026-05-06 04:28 33.94052 -118.38004 108 ft 1 kts 159°
2026-05-06 04:29 33.94037 -118.38000 110 ft 6 kts 168°
2026-05-06 04:29 33.93994 -118.37999 112 ft 5 kts 208°
2026-05-06 04:29 33.93985 -118.38024 112 ft 0 kts 262°
2026-05-06 04:30 33.93985 -118.38025 112 ft 1 kts 262°
2026-05-06 04:30 33.93977 -118.38109 112 ft 35 kts 263°
2026-05-06 04:30 33.93917 -118.38682 110 ft 101 kts 263°
2026-05-06 04:30 33.93801 -118.39743 113 ft 152 kts 258°
2026-05-06 04:31 33.93639 -118.41082 452 ft 171 kts 261°
2026-05-06 04:31 33.93493 -118.42574 1015 ft 185 kts 263°
2026-05-06 04:31 33.93367 -118.44196 1518 ft 204 kts 264°
2026-05-06 04:31 33.93210 -118.45962 2118 ft 221 kts 259°
2026-05-06 04:32 33.92723 -118.47802 2648 ft 241 kts 250°
2026-05-06 04:32 33.92079 -118.49719 3354 ft 251 kts 249°
2026-05-06 04:32 33.91386 -118.51675 4148 ft 257 kts 248°
2026-05-06 04:32 33.90659 -118.53675 4998 ft 262 kts 248°
2026-05-06 04:33 33.89919 -118.55704 5795 ft 268 kts 248°
2026-05-06 04:33 33.89161 -118.57769 6603 ft 273 kts 248°
2026-05-06 04:33 33.88375 -118.59866 7360 ft 277 kts 248°
2026-05-06 04:33 33.87567 -118.61982 8080 ft 284 kts 247°
2026-05-06 04:34 33.86732 -118.64161 8837 ft 289 kts 246°
2026-05-06 04:34 33.85524 -118.66106 9592 ft 295 kts 218°
2026-05-06 04:34 33.83647 -118.67146 10131 ft 309 kts 189°
2026-05-06 04:34 33.81472 -118.67001 10408 ft 325 kts 161°
2026-05-06 04:35 33.79514 -118.65592 10742 ft 335 kts 133°
2026-05-06 04:35 33.78282 -118.63210 11231 ft 340 kts 105°
2026-05-06 04:35 33.78095 -118.60412 11963 ft 337 kts 79°
2026-05-06 04:35 33.78948 -118.57811 12580 ft 340 kts 54°
2026-05-06 04:36 33.80636 -118.55863 12812 ft 338 kts 33°
2026-05-06 04:36 33.82572 -118.54248 12955 ft 339 kts 37°
2026-05-06 04:36 33.84434 -118.52507 12978 ft 340 kts 38°
2026-05-06 04:36 33.86274 -118.50697 13229 ft 342 kts 39°
2026-05-06 04:37 33.88097 -118.48859 14082 ft 343 kts 40°
2026-05-06 04:37 33.89927 -118.46988 14713 ft 349 kts 40°
2026-05-06 04:37 33.91783 -118.45076 14918 ft 350 kts 41°
2026-05-06 04:37 33.93426 -118.42984 14963 ft 349 kts 55°
2026-05-06 04:38 33.94796 -118.40556 15095 ft 353 kts 54°
2026-05-06 04:38 33.96207 -118.38108 15859 ft 352 kts 55°
2026-05-06 04:38 33.97606 -118.35658 16598 ft 356 kts 55°
2026-05-06 04:38 33.99011 -118.33187 17310 ft 359 kts 55°
2026-05-06 04:39 34.00423 -118.30696 18011 ft 362 kts 55°
2026-05-06 04:39 34.01852 -118.28178 18654 ft 365 kts 55°
2026-05-06 04:39 34.03295 -118.25635 19261 ft 368 kts 55°
2026-05-06 04:39 34.04738 -118.23088 19931 ft 368 kts 55°
2026-05-06 04:40 34.06183 -118.20536 20568 ft 369 kts 55°
2026-05-06 04:40 34.07619 -118.17999 21170 ft 371 kts 56°
2026-05-06 04:40 34.09080 -118.15416 21785 ft 373 kts 56°
2026-05-06 04:40 34.10543 -118.12826 22380 ft 375 kts 56°
2026-05-06 04:41 34.12012 -118.10225 22963 ft 377 kts 56°
2026-05-06 04:41 34.13494 -118.07598 23547 ft 379 kts 56°
2026-05-06 04:41 34.14981 -118.04960 24040 ft 381 kts 56°
2026-05-06 04:41 34.16475 -118.02307 24556 ft 381 kts 56°
2026-05-06 04:42 34.17965 -117.99660 25071 ft 381 kts 56°
2026-05-06 04:42 34.19459 -117.97004 25531 ft 383 kts 56°
2026-05-06 04:42 34.20964 -117.94326 25871 ft 388 kts 56°
2026-05-06 04:42 34.22479 -117.91628 26405 ft 387 kts 56°
2026-05-06 04:43 34.23989 -117.88937 26889 ft 389 kts 56°
2026-05-06 04:43 34.25510 -117.86226 27359 ft 390 kts 56°
2026-05-06 04:43 34.27034 -117.83507 27824 ft 390 kts 56°
2026-05-06 04:43 34.28560 -117.80782 28248 ft 392 kts 56°
2026-05-06 04:44 34.30090 -117.78047 28679 ft 393 kts 56°
2026-05-06 04:44 34.31622 -117.75306 29008 ft 394 kts 57°
2026-05-06 04:44 34.33148 -117.72576 29095 ft 389 kts 56°
2026-05-06 04:45 34.36227 -117.67267 29055 ft 388 kts 54°
2026-05-06 04:45 34.39391 -117.61995 29047 ft 387 kts 55°
2026-05-06 04:46 34.42545 -117.56708 29019 ft 387 kts 55°
2026-05-06 04:46 34.45688 -117.51430 29073 ft 384 kts 55°
2026-05-06 04:47 34.48801 -117.46194 29092 ft 382 kts 55°
2026-05-06 04:47 34.51911 -117.40956 29086 ft 382 kts 55°
2026-05-06 04:48 34.55015 -117.35720 29086 ft 382 kts 55°
2026-05-06 04:48 34.58121 -117.30472 29090 ft 382 kts 55°
2026-05-06 04:49 34.61198 -117.25266 29084 ft 382 kts 55°
2026-05-06 04:49 34.64298 -117.20015 29065 ft 382 kts 55°